[[{"header":{"parameterUnit":"m.s-1","parameterCategory":1,"la1":30.2991,"la2":30.254,"lo1":-89.0895,"lo2":-89.0444,"dy":0.0017,"dx":0.0017,"nx":28,"ny":28,"refTime":"2024-06-02T21:00:00:Z","depth":0,"parameterNumber":2,"parameterNumberName":"U-component_of_WINDS"},"data":[0,0,0,0,0,0,0,0,0,0,0,0,0,0,0,0,0,0,0,0,0,0,0,0,0,0,0,0,0,0,0,0,0,0,0,0,0,0,0,0,0,0,0,0,0,0,0,0,0,0,0,0,0,0,0,0,0,0,-0.2731,-0.2732,0,-0.2761,-0.2762,-0.2762,-0.279,-0.279,-0.279,-0.2791,-0.2821,-0.2821,-0.2822,0,0,0,0,0,0,0,0,0,0,0,0,0,-0.2697,-0.2698,-0.2731,-0.2732,-0.2732,-0.2761,-0.2762,-0.2762,-0.279,-0.279,-0.279,-0.2791,-0.282,-0.2821,-0.2822,0,0,0,0,0,0,0,0,0,0,0,0,0,-0.2718,-0.2698,-0.2731,-0.2749,-0.2751,-0.2761,-0.2762,-0.2762,-0.2789,-0.279,-0.279,-0.2791,-0.282,-0.2821,-0.2822,-0.2816,0,0,-0.2824,-0.2824,0,0,0,0,0,0,0,0,-0.2717,-0.2719,-0.2746,-0.2748,-0.275,-0.2772,-0.2761,-0.278,-0.2789,-0.2775,-0.2791,-0.2791,-0.2804,-0.2806,-0.2811,-0.2818,-0.2819,-0.2824,-0.2825,-0.2825,-0.2825,0,0,0,0,0,0,0,-0.2715,-0.2718,-0.2743,-0.2747,-0.2749,-0.2756,-0.2759,-0.2765,-0.2786,-0.2776,-0.2778,-0.2781,-0.2805,-0.281,-0.2812,-0.2819,-0.2824,-0.2825,-0.2825,-0.2825,-0.2824,-0.2824,0,0,0,0,0,0,-0.2711,-0.2717,-0.2742,-0.2744,-0.2734,-0.2756,-0.276,-0.2765,-0.2786,-0.279,-0.2781,-0.2783,-0.2808,-0.2811,-0.2813,-0.2809,-0.2825,-0.2826,-0.2826,-0.2825,-0.2824,-0.2824,0,0,0,0,0,0,-0.271,-0.2713,-0.2741,-0.2731,-0.2735,-0.2756,-0.2761,-0.2765,-0.277,-0.279,-0.2794,-0.2782,-0.2809,-0.2812,-0.2816,-0.281,-0.2826,-0.2827,-0.2825,-0.2825,-0.2824,-0.2799,0,0,0,0,0,0,-0.2709,-0.2713,-0.2711,-0.2731,-0.2736,-0.2743,-0.2761,-0.2765,-0.2771,-0.2773,-0.2792,-0.2795,-0.281,-0.2814,-0.2816,-0.2811,-0.2827,-0.2826,-0.2825,-0.2824,-0.2801,-0.2798,-0.2795,0,0,0,0,0,-0.2708,-0.2702,-0.2711,-0.2714,-0.2734,-0.2743,-0.2745,-0.2762,-0.277,-0.2769,-0.2782,-0.2795,-0.281,-0.2814,-0.2817,-0.2812,-0.2826,-0.2825,-0.2824,-0.2802,-0.2798,-0.2795,0,0,0,0,0,0,-0.2681,-0.2705,-0.2715,-0.2715,-0.2727,-0.2747,-0.2746,-0.2758,-0.2767,-0.2769,-0.2789,-0.2793,-0.2794,-0.2804,-0.2808,-0.2808,-0.282,-0.2819,-0.2802,-0.2799,-0.2796,-0.2794,-0.2828,0,0,0,0,0,-0.2675,-0.2681,-0.2702,-0.27,-0.2705,-0.2725,-0.2729,-0.2741,-0.2754,-0.2759,-0.2772,-0.2783,-0.2791,-0.2796,-0.2804,-0.2802,-0.2807,-0.28,-0.2797,-0.2795,-0.2794,-0.2795,-0.2792,-0.282,-0.282,-0.282,0,0,-0.2663,-0.2677,-0.2679,-0.2695,-0.2705,-0.2711,-0.2728,-0.2733,-0.2737,-0.2759,-0.2764,-0.2774,-0.2788,-0.279,-0.2791,-0.2797,-0.2788,-0.2794,-0.2792,-0.2792,-0.2794,-0.2791,-0.2789,-0.282,-0.282,-0.282,0,0,-0.2644,-0.2655,-0.2655,-0.2665,-0.2681,-0.2694,-0.2694,-0.2713,-0.272,-0.2725,-0.2742,-0.2747,-0.276,-0.2769,-0.2776,-0.2761,-0.2773,-0.2763,-0.2749,-0.275,-0.2747,-0.2746,-0.2741,-0.2739,-0.2762,-0.2762,-0.2762,0,-0.2627,-0.2635,-0.2654,-0.2658,-0.2664,-0.2685,-0.2686,-0.2694,-0.2711,-0.2716,-0.2723,-0.2739,-0.275,-0.2755,-0.2751,-0.2755,-0.2756,-0.2761,-0.2746,-0.2745,-0.2743,-0.2739,-0.2737,-0.2761,-0.2761,-0.2761,-0.2761,0,-0.2614,-0.262,-0.2618,-0.2635,-0.2641,-0.2643,-0.2662,-0.2667,-0.2678,-0.269,-0.2695,-0.2709,-0.2721,-0.2723,-0.2734,-0.2729,-0.2732,-0.2742,-0.2755,-0.2739,-0.2735,-0.2733,-0.2759,-0.2759,-0.276,-0.276,0,0,-0.2578,-0.2605,-0.2604,-0.2613,-0.2631,-0.2636,-0.264,-0.2651,-0.2655,-0.2666,-0.267,-0.268,-0.269,-0.2697,-0.271,-0.271,-0.2698,-0.272,-0.2721,-0.2716,-0.2694,-0.2686,-0.2684,-0.2706,-0.2706,-0.2706,-0.2693,0,-0.2562,-0.257,-0.2587,-0.2589,-0.2595,-0.2615,-0.2618,-0.2629,-0.2641,-0.2648,-0.266,-0.2668,-0.268,-0.2685,-0.2686,-0.2699,-0.2694,-0.27,-0.271,-0.271,-0.2706,-0.2682,-0.2674,-0.2661,-0.2691,-0.2691,-0.2691,0,-0.2545,-0.2555,-0.2558,-0.2577,-0.2581,-0.2583,-0.2595,-0.2601,-0.2616,-0.2624,-0.2633,-0.2646,-0.2651,-0.2663,-0.267,-0.2674,-0.2679,-0.2686,-0.2686,-0.2687,-0.2699,-0.2683,-0.2657,-0.2655,-0.2689,-0.2689,-0.2689,0,-0.2519,-0.2534,-0.2538,-0.2544,-0.2566,-0.2568,-0.2577,-0.2592,-0.2598,-0.2609,-0.2613,-0.2624,-0.263,-0.2638,-0.2655,-0.2661,-0.266,-0.2673,-0.2667,-0.2667,-0.2666,-0.2666,-0.2641,-0.2669,-0.2669,-0.2669,-0.2669,0,-0.25,-0.2501,-0.2527,-0.2529,-0.2531,-0.255,-0.2552,-0.2563,-0.2576,-0.2581,-0.2598,-0.2603,-0.2624,-0.2631,-0.2644,-0.2648,-0.2651,-0.2658,-0.2661,-0.2656,-0.2655,-0.266,-0.2661,-0.2668,-0.2669,-0.2669,-0.2669,0,-0.2472,-0.2489,-0.2494,-0.2515,-0.2521,-0.2521,-0.2539,-0.2542,-0.2555,-0.2561,-0.2564,-0.2584,-0.2593,-0.261,-0.2624,-0.2632,-0.2634,-0.264,-0.2629,-0.2631,-0.2625,-0.2626,-0.2602,-0.26,-0.2629,-0.2629,-0.2628,0,-0.2458,-0.246,-0.2481,-0.2486,-0.2494,-0.2502,-0.2508,-0.2528,-0.2534,-0.255,-0.2551,-0.2562,-0.2571,-0.2585,-0.26,-0.2611,-0.2618,-0.2609,-0.2619,-0.2615,-0.2618,-0.2618,-0.2618,-0.2606,-0.2606,-0.2605,-0.2605,0,-0.2433,-0.2442,-0.2451,-0.2463,-0.247,-0.248,-0.2491,-0.2494,-0.2516,-0.2522,-0.2532,-0.2539,-0.2553,-0.2564,-0.2577,-0.2586,-0.2599,-0.2602,-0.2601,-0.2596,-0.259,-0.2594,-0.2623,-0.2602,-0.2603,-0.2603,-0.2603,-0.2603,-0.2413,-0.2415,-0.243,-0.244,-0.245,-0.246,-0.2465,-0.2478,-0.2487,-0.25,-0.2511,-0.252,-0.2534,-0.2553,-0.2562,-0.2569,-0.2576,-0.2575,-0.2574,-0.2574,-0.2572,-0.2589,-0.2572,-0.2572,-0.2572,-0.2572,-0.2572,0,-0.2389,-0.24,-0.2408,-0.2424,-0.2431,-0.2443,-0.2456,-0.2462,-0.2469,-0.2482,-0.2491,-0.2502,-0.2512,-0.2529,-0.2541,-0.2543,-0.255,-0.2546,-0.2546,-0.2548,-0.2566,-0.2565,-0.254,-0.254,-0.254,-0.254,-0.254,-0.254,-0.2377,-0.2382,-0.2393,-0.2403,-0.2414,-0.2423,-0.243,-0.2439,-0.245,-0.2462,-0.247,-0.2481,-0.2496,-0.2508,-0.2518,-0.2523,-0.2527,-0.2521,-0.2527,-0.2544,-0.2547,-0.2549,-0.2549,-0.2521,-0.2521,-0.2509,-0.2509,-0.2509]},{"header":{"parameterUnit":"m.s-1","parameterCategory":1,"la1":30.2991,"la2":30.254,"lo1":-89.0895,"lo2":-89.0444,"dy":0.0017,"dx":0.0017,"nx":28,"ny":28,"refTime":"2024-06-02T21:00:00:Z","depth":0,"parameterNumber":3,"parameterNumberName":"V-component_of_WINDS"},"data":[0,0,0,0,0,0,0,0,0,0,0,0,0,0,0,0,0,0,0,0,0,0,0,0,0,0,0,0,0,0,0,0,0,0,0,0,0,0,0,0,0,0,0,0,0,0,0,0,0,0,0,0,0,0,0,0,0,0,5.2284,5.2284,0,5.23,5.23,5.23,5.2217,5.2214,5.2212,5.221,5.2224,5.2226,5.2229,0,0,0,0,0,0,0,0,0,0,0,0,0,5.2177,5.218,5.2284,5.2284,5.2284,5.23,5.23,5.23,5.2217,5.2214,5.2211,5.2208,5.2223,5.2226,5.2229,0,0,0,0,0,0,0,0,0,0,0,0,0,5.2212,5.2181,5.2284,5.2245,5.2241,5.23,5.23,5.23,5.2218,5.2214,5.221,5.2207,5.2222,5.2226,5.223,5.2326,0,0,5.2242,5.2243,0,0,0,0,0,0,0,0,5.221,5.2216,5.225,5.2247,5.2244,5.2253,5.2268,5.2309,5.2219,5.2227,5.221,5.2205,5.2236,5.2239,5.225,5.2327,5.2327,5.2242,5.2244,5.2246,5.2247,0,0,0,0,0,0,0,5.2208,5.2214,5.229,5.2251,5.2247,5.2225,5.2226,5.2275,5.2251,5.2226,5.222,5.2223,5.2234,5.2246,5.2249,5.2328,5.2242,5.2245,5.2248,5.2249,5.2483,5.2487,0,0,0,0,0,0,5.2211,5.2213,5.2289,5.229,5.2218,5.223,5.2231,5.2253,5.2251,5.2247,5.2226,5.2219,5.2241,5.2245,5.225,5.2361,5.2246,5.225,5.2252,5.2479,5.2484,5.2488,0,0,0,0,0,0,5.2209,5.2218,5.2289,5.225,5.2257,5.2236,5.2261,5.2256,5.2268,5.2251,5.2246,5.2243,5.2238,5.2244,5.2307,5.236,5.2252,5.2255,5.2475,5.2481,5.2486,5.2586,0,0,0,0,0,0,5.2206,5.2218,5.2255,5.2252,5.226,5.2348,5.2265,5.2258,5.2275,5.2266,5.2266,5.2262,5.2236,5.2302,5.2311,5.2364,5.2258,5.247,5.2477,5.2484,5.2578,5.2594,5.2609,0,0,0,0,0,5.2203,5.2283,5.2258,5.2267,5.2306,5.2351,5.2355,5.2325,5.228,5.2316,5.2305,5.2262,5.2353,5.2309,5.2319,5.2374,5.2466,5.2475,5.2484,5.2571,5.2591,5.2608,0,0,0,0,0,0,5.2293,5.2281,5.2254,5.2335,5.2345,5.2337,5.2382,5.2347,5.2369,5.236,5.232,5.232,5.2391,5.2388,5.2339,5.2466,5.2402,5.2413,5.2465,5.2484,5.2499,5.2498,5.2261,0,0,0,0,0,5.2322,5.236,5.2348,5.2421,5.2427,5.2404,5.2423,5.2398,5.2406,5.2409,5.2403,5.2412,5.2442,5.2463,5.249,5.2577,5.2575,5.2619,5.2635,5.2648,5.2657,5.2702,5.2721,5.2516,5.2516,5.2516,0,0,5.2383,5.2382,5.2408,5.2439,5.2444,5.2483,5.2408,5.2453,5.2482,5.2416,5.2475,5.2471,5.2478,5.2554,5.2587,5.2554,5.2714,5.2659,5.2669,5.2672,5.2713,5.2733,5.275,5.2522,5.2521,5.252,0,0,5.2514,5.2518,5.2578,5.2584,5.2592,5.2576,5.2591,5.2588,5.2583,5.2642,5.2593,5.2626,5.268,5.2687,5.2697,5.283,5.2791,5.284,5.2921,5.2965,5.2981,5.2995,5.3042,5.3059,5.285,5.285,5.2851,0,5.2589,5.2647,5.2613,5.2662,5.2676,5.2619,5.268,5.2687,5.2703,5.2714,5.2677,5.2743,5.2744,5.282,5.2852,5.2863,5.2877,5.284,5.2981,5.2995,5.3008,5.3052,5.307,5.2856,5.2856,5.2855,5.2854,0,5.2738,5.2779,5.2827,5.2844,5.2864,5.2919,5.2892,5.2916,5.289,5.2877,5.2938,5.2937,5.2962,5.2978,5.2953,5.3051,5.303,5.2988,5.2923,5.3034,5.3074,5.3091,5.2865,5.2863,5.2861,5.2859,0,0,5.2926,5.2924,5.2942,5.2949,5.2953,5.2984,5.3035,5.3061,5.3082,5.3095,5.3136,5.3182,5.3143,5.3155,5.313,5.3169,5.3274,5.3122,5.3122,5.315,5.338,5.3411,5.3431,5.3248,5.3251,5.3253,5.3379,0,5.3054,5.3141,5.3112,5.3201,5.3238,5.3184,5.3228,5.3235,5.3225,5.3254,5.3242,5.3275,5.3222,5.3229,5.3265,5.3253,5.3319,5.3244,5.3285,5.3287,5.3284,5.3452,5.3485,5.3604,5.3395,5.3397,5.3399,0,5.3214,5.3234,5.3327,5.3324,5.3338,5.3379,5.3399,5.3428,5.3434,5.3424,5.3438,5.3404,5.3452,5.3388,5.3454,5.3404,5.3418,5.3415,5.3419,5.3421,5.3349,5.3458,5.3641,5.3658,5.3424,5.3422,5.342,0,5.3341,5.3391,5.3452,5.346,5.3459,5.3488,5.3489,5.3492,5.3509,5.3526,5.3537,5.356,5.3573,5.3591,5.3564,5.352,5.3634,5.3567,5.3626,5.3626,5.3651,5.365,5.3839,5.3663,5.3663,5.3662,5.3662,0,5.3486,5.3545,5.3509,5.3547,5.3611,5.3576,5.364,5.3634,5.3637,5.3672,5.3627,5.3661,5.3623,5.3653,5.3633,5.369,5.3696,5.3688,5.3682,5.3692,5.3693,5.3701,5.3692,5.3667,5.3666,5.3665,5.3664,0,5.3639,5.3617,5.3681,5.3674,5.3674,5.3721,5.3715,5.3749,5.3735,5.378,5.3788,5.3767,5.38,5.3775,5.3807,5.3793,5.3869,5.3851,5.3867,5.3862,5.3921,5.3916,5.4121,5.4145,5.3955,5.3957,5.3958,0,5.3732,5.3776,5.3774,5.3795,5.3798,5.3832,5.3849,5.3816,5.3836,5.3846,5.3879,5.3908,5.3929,5.3984,5.3971,5.3995,5.3977,5.4047,5.398,5.3989,5.3977,5.3975,5.3978,5.4061,5.4063,5.4065,5.4066,0,5.3901,5.3888,5.3914,5.3938,5.3959,5.3976,5.3988,5.4007,5.3974,5.3998,5.4031,5.4048,5.4081,5.411,5.413,5.4129,5.4092,5.4088,5.4102,5.4113,5.412,5.4116,5.3903,5.4083,5.4081,5.408,5.4079,5.4078,5.4026,5.4062,5.4066,5.4097,5.4103,5.4116,5.4147,5.4137,5.4165,5.4189,5.4168,5.4208,5.4212,5.4235,5.4239,5.4269,5.424,5.4261,5.4266,5.4272,5.428,5.4116,5.4272,5.4272,5.4271,5.4271,5.427,0,5.4191,5.4191,5.422,5.4239,5.4263,5.4226,5.4238,5.4261,5.4296,5.4304,5.4326,5.4363,5.4391,5.438,5.4405,5.4431,5.4414,5.4438,5.4435,5.4436,5.4305,5.429,5.4451,5.4451,5.4451,5.4451,5.4451,5.4451,5.428,5.4338,5.4326,5.4387,5.4385,5.4424,5.4434,5.4445,5.4451,5.4495,5.4518,5.4511,5.4511,5.4534,5.4558,5.4554,5.4565,5.4595,5.4585,5.4463,5.4445,5.4428,5.4413,5.4598,5.4598,5.4712,5.4713,5.4714]}]]